Location: North Fontana
(34.1395°N, 117.4623°W)
Time: 16:36:28
(UTC+00:00)

DMSP B5D2-2 - Pass Details

Date: 13 April 2024
Orbit: 788 x 802 km, 98.3° (Epoch: 20 May)

Event Time Altitude Azimuth Distance (km) Brightness Sun altitude
Rises 12:09:25 0° 176° (S) 3,272 7.1 -14.9°
Reaches altitude 10° 12:11:46 10° 180° (S) 2,345 6.3 -14.4°
Maximum altitude 12:16:52 58° 259° (W) 918 4.1 -13.5°
Drops below altitude 10° 12:21:59 10° 339° (NNW) 2,355 6.5 -12.5°
Sets 12:24:21 0° 343° (NNW) 3,287 7.3 -12.0°
